Terug naar catalogus

FENGYUN 1C DEB

ActiefPO
NORAD 31083·DEBRIS·🇨🇳 China

Gelanceerd May 10, 1999 vanaf Taiyuan Satellite Launch Center

Loading…

Volgende Passages (komende 24 uur)

TLE

VersSource: Space-Track

Epoch: Sep 14, 2026, 08:31 UTC

1 31083U 99025BGD 26257.35508009  .00008648  00000-0  14800-2 0  9993
2 31083  98.6612  34.4495 0029113 170.9742 217.6199 14.68814806 17407

Volg FENGYUN 1C DEB in realtime met AllMySat

Download on the App Store